• în România
  • Lista ţărilor
  • Pe 7 zile
  • Temperatura apei
  • Hartă satelitară
  • Meteo pe hartă
  • Widget-uri
  • user-avatar
    Intrare

    Meteo pe oră la Ischgl

    Astăzi, 23 Iunie, Vineri

    Timp Temperatura Precipitaţii Vânt Presiune Umiditate
    00:00 +8°C° 0,3 mm 1 m/s 578 mmHg 89%
    01:00 +7°C° 0,3 mm 1 m/s 578 mmHg 89%
    02:00 +7°C° 0,1 mm 1 m/s 577 mmHg 89%
    03:00 +7°C° 0,1 mm 1 m/s 577 mmHg 88%
    04:00 +7°C° 0,1 mm 1 m/s 577 mmHg 88%
    05:00 +9°C° 0,1 mm 1 m/s 578 mmHg 84%
    06:00 +11°C° 0,1 mm 1 m/s 579 mmHg 80%
    07:00 +13°C° 0,1 mm 1 m/s 580 mmHg 76%
    08:00 +14°C° 0,1 mm 2 m/s 581 mmHg 66%
    09:00 +16°C° 0,1 mm 2 m/s 582 mmHg 55%
    10:00 +18°C° 0,1 mm 2 m/s 583 mmHg 45%
    11:00 +19°C° 0,1 mm 2 m/s 583 mmHg 44%
    12:00 +19°C° 0,1 mm 2 m/s 583 mmHg 43%
    13:00 +20°C° 0,1 mm 3 m/s 583 mmHg 42%
    14:00 +19°C° 0,2 mm 2 m/s 583 mmHg 46%
    15:00 +19°C° 0,2 mm 2 m/s 583 mmHg 49%
    16:00 +18°C° 0,2 mm 2 m/s 583 mmHg 53%
    17:00 +17°C° 0,2 mm 2 m/s 582 mmHg 61%
    18:00 +15°C° 0,2 mm 2 m/s 581 mmHg 70%
    19:00 +14°C° 0,2 mm 1 m/s 581 mmHg 79%
    20:00 +12°C° 0,1 mm 1 m/s 580 mmHg 84%
    21:00 +10°C° 0,1 mm 1 m/s 579 mmHg 89%
    22:00 +7°C° 0,1 mm 1 m/s 578 mmHg 95%
    23:00 +7°C° 0 mm 1 m/s 578 mmHg 95%

    Mâine, 24 Iunie, Sâmbătă

    Timp Temperatura Precipitaţii Vânt Presiune Umiditate
    00:00 +7°C° 0 mm 1 m/s 578 mmHg 95%
    01:00 +6°C° 0 mm 1 m/s 578 mmHg 95%
    02:00 +6°C° 0 mm 1 m/s 577 mmHg 95%
    03:00 +6°C° 0 mm 1 m/s 577 mmHg 94%
    04:00 +5°C° 0 mm 1 m/s 577 mmHg 94%
    05:00 +8°C° 0 mm 1 m/s 578 mmHg 86%
    06:00 +9°C° 0 mm 0 m/s 579 mmHg 78%
    07:00 +12°C° 0 mm 0 m/s 581 mmHg 70%
    08:00 +15°C° 0 mm 1 m/s 581 mmHg 61%
    09:00 +18°C° 0 mm 1 m/s 582 mmHg 52%
    10:00 +20°C° 0 mm 1 m/s 583 mmHg 43%
    11:00 +20°C° 0,1 mm 1 m/s 583 mmHg 43%
    12:00 +20°C° 0,1 mm 2 m/s 583 mmHg 44%
    13:00 +20°C° 0,1 mm 2 m/s 583 mmHg 44%
    14:00 +19°C° 0,8 mm 2 m/s 582 mmHg 54%
    15:00 +18°C° 0,8 mm 2 m/s 581 mmHg 64%
    16:00 +16°C° 0,8 mm 2 m/s 581 mmHg 74%
    17:00 +15°C° 1,5 mm 2 m/s 580 mmHg 80%
    18:00 +14°C° 1,5 mm 1 m/s 580 mmHg 85%
    19:00 +13°C° 1,5 mm 1 m/s 579 mmHg 91%
    20:00 +11°C° 1,3 mm 1 m/s 579 mmHg 93%
    21:00 +10°C° 1,3 mm 1 m/s 578 mmHg 95%
    22:00 +8°C° 1,3 mm 1 m/s 577 mmHg 97%
    23:00 +8°C° 0,5 mm 1 m/s 577 mmHg 97%

    Poimâine, 25 Iunie, Duminică

    Timp Temperatura Precipitaţii Vânt Presiune Umiditate
    00:00 +7°C° 0,5 mm 0 m/s 577 mmHg 97%
    01:00 +6°C° 0,5 mm 0 m/s 576 mmHg 97%
    02:00 +6°C° 0,3 mm 0 m/s 576 mmHg 97%
    03:00 +6°C° 0,3 mm 0 m/s 576 mmHg 96%
    04:00 +7°C° 0,3 mm 1 m/s 576 mmHg 96%
    05:00 +8°C° 0,3 mm 1 m/s 576 mmHg 93%
    06:00 +9°C° 0,3 mm 1 m/s 577 mmHg 91%
    07:00 +10°C° 0,3 mm 1 m/s 578 mmHg 89%
    08:00 +11°C° 0,3 mm 1 m/s 578 mmHg 83%
    09:00 +12°C° 0,3 mm 1 m/s 579 mmHg 77%
    10:00 +13°C° 0,3 mm 1 m/s 579 mmHg 71%
    11:00 +14°C° 0,2 mm 1 m/s 579 mmHg 68%
    12:00 +15°C° 0,2 mm 2 m/s 580 mmHg 64%
    13:00 +16°C° 0,2 mm 2 m/s 580 mmHg 60%
    14:00 +15°C° 0,3 mm 2 m/s 580 mmHg 62%
    15:00 +15°C° 0,3 mm 2 m/s 579 mmHg 64%
    16:00 +14°C° 0,3 mm 2 m/s 579 mmHg 65%
    17:00 +13°C° 0,1 mm 2 m/s 579 mmHg 71%
    18:00 +12°C° 0,1 mm 2 m/s 579 mmHg 76%
    19:00 +10°C° 0,1 mm 2 m/s 578 mmHg 81%
    20:00 +10°C° 0 mm 1 m/s 578 mmHg 86%
    21:00 +8°C° 0 mm 1 m/s 577 mmHg 91%
    22:00 +6°C° 0 mm 1 m/s 576 mmHg 97%
    23:00 +5°C° 0 mm 1 m/s 576 mmHg 97%

    26 Iunie, Luni

    Timp Temperatura Precipitaţii Vânt Presiune Umiditate
    00:00 +5°C° 0 mm 1 m/s 576 mmHg 97%
    01:00 +3°C° 0 mm 0 m/s 575 mmHg 97%
    02:00 +3°C° 0 mm 0 m/s 575 mmHg 97%
    03:00 +2°C° 0 mm 0 m/s 574 mmHg 96%
    04:00 +2°C° 0 mm 0 m/s 574 mmHg 96%
    05:00 +4°C° 0 mm 0 m/s 575 mmHg 90%
    06:00 +7°C° 0 mm 0 m/s 577 mmHg 84%
    07:00 +10°C° 0 mm 0 m/s 578 mmHg 78%
    08:00 +13°C° 0 mm 1 m/s 579 mmHg 69%
    09:00 +15°C° 0 mm 1 m/s 580 mmHg 61%
    10:00 +18°C° 0 mm 1 m/s 581 mmHg 52%
    11:00 +19°C° 0,1 mm 1 m/s 581 mmHg 52%
    12:00 +19°C° 0,1 mm 1 m/s 581 mmHg 51%
    13:00 +20°C° 0,1 mm 1 m/s 581 mmHg 51%
    14:00 +19°C° 0,5 mm 1 m/s 580 mmHg 56%
    15:00 +18°C° 0,5 mm 1 m/s 580 mmHg 62%
    16:00 +16°C° 0,5 mm 1 m/s 579 mmHg 67%
    17:00 +15°C° 0,6 mm 1 m/s 579 mmHg 74%
    18:00 +14°C° 0,6 mm 1 m/s 578 mmHg 81%
    19:00 +13°C° 0,6 mm 1 m/s 578 mmHg 88%
    20:00 +12°C° 0,4 mm 1 m/s 577 mmHg 90%
    21:00 +11°C° 0,4 mm 1 m/s 577 mmHg 92%
    22:00 +9°C° 0,4 mm 2 m/s 576 mmHg 95%
    23:00 +8°C° 0,5 mm 2 m/s 576 mmHg 95%

    27 Iunie, Marţi

    Timp Temperatura Precipitaţii Vânt Presiune Umiditate
    00:00 +8°C° 0,5 mm 2 m/s 576 mmHg 95%
    01:00 +8°C° 0,5 mm 2 m/s 575 mmHg 96%
    02:00 +8°C° 0,4 mm 2 m/s 575 mmHg 96%
    03:00 +7°C° 0,4 mm 2 m/s 575 mmHg 96%
    04:00 +7°C° 0,4 mm 2 m/s 574 mmHg 96%
    05:00 +8°C° 0,2 mm 2 m/s 575 mmHg 94%
    06:00 +8°C° 0,2 mm 2 m/s 575 mmHg 92%
    07:00 +9°C° 0,2 mm 2 m/s 575 mmHg 91%
    08:00 +12°C° 0,1 mm 2 m/s 576 mmHg 80%
    09:00 +14°C° 0,1 mm 2 m/s 577 mmHg 70%
    10:00 +15°C° 0,1 mm 2 m/s 578 mmHg 60%
    11:00 +16°C° 0,3 mm 2 m/s 578 mmHg 59%
    12:00 +16°C° 0,3 mm 2 m/s 578 mmHg 59%
    13:00 +17°C° 0,3 mm 2 m/s 578 mmHg 58%
    14:00 +17°C° 0,7 mm 2 m/s 577 mmHg 61%
    15:00 +16°C° 0,7 mm 2 m/s 577 mmHg 64%
    16:00 +16°C° 0,7 mm 2 m/s 577 mmHg 67%
    17:00 +15°C° 1 mm 1 m/s 577 mmHg 74%
    18:00 +14°C° 1 mm 1 m/s 576 mmHg 81%
    19:00 +12°C° 1 mm 1 m/s 576 mmHg 88%
    20:00 +11°C° 1,3 mm 1 m/s 575 mmHg 91%
    21:00 +10°C° 1,3 mm 1 m/s 575 mmHg 94%
    22:00 +9°C° 1,3 mm 1 m/s 575 mmHg 96%
    23:00 +9°C° 0,9 mm 1 m/s 574 mmHg 96%

    28 Iunie, Miercuri

    Timp Temperatura Precipitaţii Vânt Presiune Umiditate
    00:00 +9°C° 0,9 mm 1 m/s 574 mmHg 96%
    01:00 +8°C° 0,9 mm 1 m/s 574 mmHg 96%
    02:00 +8°C° 0,4 mm 1 m/s 573 mmHg 96%
    03:00 +8°C° 0,4 mm 1 m/s 573 mmHg 96%
    04:00 +8°C° 0,4 mm 1 m/s 572 mmHg 95%
    05:00 +9°C° 0,1 mm 1 m/s 573 mmHg 93%
    06:00 +9°C° 0,1 mm 1 m/s 573 mmHg 91%
    07:00 +10°C° 0,1 mm 1 m/s 573 mmHg 89%
    08:00 +12°C° 0,2 mm 2 m/s 574 mmHg 83%
    09:00 +13°C° 0,2 mm 2 m/s 574 mmHg 76%
    10:00 +14°C° 0,2 mm 2 m/s 574 mmHg 69%
    11:00 +14°C° 0,4 mm 3 m/s 574 mmHg 67%
    12:00 +14°C° 0,4 mm 3 m/s 574 mmHg 66%
    13:00 +16°C° 0,4 mm 3 m/s 574 mmHg 64%
    14:00 +16°C° 0,8 mm 3 m/s 573 mmHg 67%
    15:00 +14°C° 0,8 mm 3 m/s 572 mmHg 70%
    16:00 +14°C° 0,8 mm 3 m/s 572 mmHg 73%
    17:00 +13°C° 0,7 mm 3 m/s 571 mmHg 77%
    18:00 +12°C° 0,7 mm 3 m/s 570 mmHg 80%
    19:00 +10°C° 0,7 mm 3 m/s 569 mmHg 83%
    20:00 +9°C° 0,7 mm 2 m/s 569 mmHg 87%
    21:00 +7°C° 0,7 mm 2 m/s 568 mmHg 91%
    22:00 +6°C° 0,7 mm 2 m/s 567 mmHg 95%
    23:00 +5°C° 0,5 mm 2 m/s 567 mmHg 96%
    Arată mai mult